Location: B�retswil
(47.3376°N, 8.8534°E)
Time: 08:34:47
(UTC+00:00)

Cosmos 968 Rocket - Pass Details

Date: 03 March 2021
Orbit: 740 x 771 km, 74.0° (Epoch: 12 April)

Event Time Altitude Azimuth Distance (km) Brightness Sun altitude
Rises 17:48:11 0° 337° (NNW) 3,249 7.0 -6.8°
Reaches altitude 10° 17:50:34 10° 338° (NNW) 2,321 6.3 -7.2°
Maximum altitude 17:55:52 88° 66° (ENE) 779 3.5 -8.1°
Drops below altitude 10° 18:01:08 10° 158° (SSE) 2,309 5.8 -9.0°
Sets 18:03:30 0° 159° (SSE) 3,231 6.5 -9.4°
